KINEIS-4B

Last updated on Thu Sep 10 2026 00:02:52 GMT+0000 (Coordinated Universal Time)

1 63304U 25056E 26252.62297470 .00000973 00000+0 16148-3 0 9999 2 63304 97.9211 14.5061 0006147 39.8542 320.3116 14.72343174 79540
UTC large
Height (km)
Speed (km/s)
/
Latitude / Longitude
Inclination (degrees)
Orbital Period (minutes)
Azimuth
Elevation
Range (km)
Doppler Factor

Next 0 passes for location: London (51.5072 / 0.1276)

No passes found over London.
KINEIS-4B